Home > Time Zones > World Clock > Weather > Italy > Monza > Past weeks

Flag for Italy Weather past 2 weeks in Monza, Italy

Now
55 °F

Passing clouds.


Feels Like: 55 °F
Forecast: 48 / 61 °F
Wind: 1 mph from North

Location: Milan / Linate

Current Time: Apr 28, 2015 at 7:42:40 AM

Latest Report: Apr 28, 2015 at 6:50 AM


Visibility: N/A

Pressure: 29.59 "Hg

Humidity: 100%

Dew point: 55 °F

Location of MonzaLocation

Historic Weather in Monza — Graph

°F

Monza temperature yesterday

Maximum temperature yesterday: 59 °F (at 11:20 AM)
Minimum temperature yesterday: 55 °F (at 6:50 PM)
Average temperature yesterday: 57 °F

Past Weeks' High & Low Weather Summary

 TemperatureHumidityPressure
High81 °F (Apr 22, 5:20 PM)100% (Apr 13, 6:50 AM)30.36 "Hg (Apr 13, 6:50 AM)
Low41 °F (Apr 20, 5:50 AM)20% (Apr 22, 5:20 PM)29.59 "Hg (Apr 28, 3:20 AM)
Average61 °F65%30.04 "Hg
* Reported Apr 13 6:20 AM — Apr 28 6:20 AM, Monza, Weather by CustomWeather, © 2015

Note: Actual official high and low records may vary slightly from our data, if they occured in-between our weather recording intervals... More about our weather records

Advertising

Monza weather history for previous 24 hours

 ConditionsComfort  
Time TempWeatherWind HumidityBarometerVisibility
6:20 AM
Tue, Apr 28
55 °FLight rain. Partly cloudy.3 mph100%29.59 "HgN/A
5:50 AM55 °FLight rain. Passing clouds.2 mph100%29.59 "HgN/A
5:20 AM55 °FLight rain. Mostly cloudy.1 mph100%29.59 "HgN/A
4:50 AM55 °FLight rain. Overcast.3 mph100%29.59 "HgN/A
4:20 AM55 °FLight rain. Overcast.3 mph100%29.59 "HgN/A
3:50 AM55 °FDrizzle. Overcast.5 mph100%29.59 "Hg5 mi
3:20 AM55 °FRain. Passing clouds.6 mph100%29.59 "Hg3 mi
2:50 AM55 °FRain. Passing clouds.3 mph100%29.62 "Hg3 mi
2:20 AM55 °FLight rain. Passing clouds.2 mph100%29.62 "HgN/A
1:50 AM55 °FLight rain. Passing clouds.3 mph100%29.62 "HgN/A
1:20 AM55 °FLight rain. Passing clouds.6 mph100%29.62 "Hg4 mi
12:50 AM55 °FPassing clouds.6 mph100%29.62 "HgN/A
12:20 AM55 °FPassing clouds.6 mph100%29.62 "HgN/A
11:50 PM
Mon, Apr 27
55 °FPassing clouds.6 mph100%29.62 "HgN/A
11:20 PM55 °FPassing clouds.6 mph100%29.62 "HgN/A
10:50 PM55 °FLight rain. Passing clouds.7 mph100%29.62 "HgN/A
10:20 PM55 °FRain. Partly cloudy.10 mph100%29.62 "Hg5 mi
9:50 PM55 °FRain. Partly cloudy.7 mph100%29.62 "Hg5 mi
9:20 PM55 °FRain. Broken clouds.8 mph100%29.62 "Hg4 mi
8:50 PM55 °FRain. Fog.7 mph100%29.62 "Hg3 mi
8:20 PM55 °FRain. Fog.2 mph100%29.62 "Hg2 mi
7:50 PM55 °FRain. Fog.3 mph100%29.62 "Hg2 mi
7:20 PM55 °FLight rain. Cloudy.3 mph100%29.62 "HgN/A
6:50 PM55 °FLight rain. Mostly cloudy.6 mph100%29.62 "Hg5 mi
6:20 PM57 °FLight rain. Mostly cloudy.6 mph100%29.62 "Hg4 mi
5:50 PM57 °FLight rain. Cloudy.7 mph100%29.65 "Hg5 mi
5:20 PM57 °FLight rain. Cloudy.8 mph100%29.65 "Hg4 mi
4:50 PM57 °FRain. Mostly cloudy.10 mph100%29.65 "Hg4 mi
4:20 PM57 °FRain. Mostly cloudy.8 mph100%29.65 "Hg4 mi
3:50 PM57 °FRain. Mostly cloudy.12 mph100%29.65 "Hg4 mi
3:20 PM57 °FRain. Mostly cloudy.15 mph100%29.65 "Hg4 mi
2:50 PM59 °FRain. Mostly cloudy.16 mph94%29.65 "Hg4 mi
2:20 PM59 °FPartly sunny.12 mph100%29.65 "Hg5 mi
1:50 PM59 °FRain. Partly sunny.10 mph100%29.68 "Hg3 mi
1:20 PM59 °FRain. Mostly cloudy.10 mph94%29.68 "Hg3 mi
12:50 PM59 °FLight rain. Mostly cloudy.12 mph94%29.68 "Hg4 mi
12:20 PM59 °FLight rain. Mostly cloudy.10 mph100%29.68 "Hg4 mi
11:50 AM57 °FLight rain. Mostly cloudy.12 mph100%29.71 "Hg4 mi
11:20 AM59 °FLight rain. Mostly cloudy.13 mph94%29.71 "Hg5 mi
10:50 AM57 °FLight rain. Mostly cloudy.13 mph100%29.71 "Hg5 mi
10:20 AM57 °FLight rain. Mostly cloudy.12 mph100%29.71 "Hg4 mi
9:50 AM57 °FLight rain. Fog.10 mph100%29.71 "Hg3 mi
9:20 AM57 °FLight rain. Fog.10 mph100%29.71 "Hg2 mi
8:50 AM57 °FRain. Mostly cloudy.9 mph100%29.71 "Hg2 mi
8:20 AM57 °FRain. Mostly cloudy.10 mph100%29.71 "Hg2 mi
7:50 AM57 °FRain. Mostly cloudy.10 mph100%29.71 "Hg2 mi
7:20 AM57 °FRain. Partly sunny.12 mph100%29.71 "Hg2 mi
Weather by CustomWeather, © 2015

See weather overviewHow to use our weather pages